sat.trackr.live / text

‹ back to catalog

STARLINK-30975

NORAD 58446 · 2023-183K

PAYLOAD ACTIVE UNKNOWN

§ Identity

Operator
Country
US
Launch date
2023-11-28
Launch site
AFETR
Launch vehicle
Mass (kg)
RCS (m²)

Purposes: comms

External: N2YO · Heavens-Above · Gunter

§ Orbital elements

Epoch: 2026-09-20T01:31:39.038592Z

Period
94.27 min
Inclination
43.0041°
Eccentricity
0.0001188
Mean motion
15.27575056 rev/d
Perigee alt
482.2 km
Apogee alt
483.9 km
Semi-major
6,861.2 km
B*
8.0357e-6
RAAN
23.6841°
Arg perigee
269.4380°
Mean anomaly
90.6335°
Rev number
15,648

§ Raw data

STARLINK-309751 58446U 23183K   26263.06364628 -.00000041  00000+0  80357-5 0  99912 58446  43.0041  23.6841 0001188 269.4380  90.6335 15.27575056156488

JSON: /api/v1/satellites/58446 · /tle

For live sub-satellite position, see the globe view (requires WebGL).

§ Visibility from observer

Set your observer location to see the next 7 days of passes ≥ 10°. The values pass through the URL so the page stays shareable.

No JS? Fill the form by hand. The geolocation button needs JavaScript.